Tracking 31027 objects as of 19-Jul-2025
HD Live streaming from Space Station
objects crossing your sky now

TITAN 3C TRANSTAGE R/B

Track TITAN 3C TRANSTAGE R/B now!


NORAD ID: 10942
Int'l Code: 1978-058B
Perigee: 29,911.4 km
Apogee: 42,037.4 km
Inclination: 9.9 °
Period: 1,445.3 minutes
Semi major axis: 42345 km
RCS: Unknown
Launch date: June 10, 1978
Source: United States (US)
Launch site: AIR FORCE EASTERN TEST RANGE (AFETR)

Note: This is a ROCKET BODY
Your satellite tracking list
IRIDIUM 33 DEB
Track 1 satellite(s)




NASA's NSSDC Master Catalog

Two Line Element Set (TLE):
1 10942U 78058B   25198.40012302 -.00000325  00000-0  00000-0 0  9992
2 10942   9.8845  21.3829 1431803 123.4001 251.2294  0.99630776 23432
Source of the keplerian elements: McCants